Weather reports worldwide

Advertisment
St. James's Park, United Kingdom (3770): temperature & dewpoint: 11.12.2017 23:00:00 - 17.12.2017 23:00:00 (GMT)St. James's Park, United Kingdom (3770): temperature -20cm & temperature -100cm: 11.12.2017 23:00:00 - 17.12.2017 23:00:00 (GMT)St. James's Park, United Kingdom (3770): precipitation: 11.12.2017 23:00:00 - 17.12.2017 23:00:00 (GMT)
Date & Time tt [°C] td [°C] tt -20cm [°C] tt -100cm [°C] rr [mm]
17.12.2017 23:00:00 - - - - 0,0
17.12.2017 22:00:00 9,2 8,7 - - 0,0
17.12.2017 21:00:00 8,9 8,4 - - 0,2
17.12.2017 20:00:00 8,7 8,2 - - 0,0
17.12.2017 19:00:00 8,6 8,2 - - 0,0
17.12.2017 18:00:00 8,1 7,7 - - 0,4
17.12.2017 17:00:00 7,9 7,3 - - 0,2
17.12.2017 16:00:00 7,3 6,7 - - 1,0
17.12.2017 15:00:00 7,0 6,2 - - 0,2
17.12.2017 14:00:00 5,7 4,8 - - 1,0
17.12.2017 13:00:00 5,2 3,5 - - 0,2
17.12.2017 12:00:00 5,1 2,8 - - 0,0
17.12.2017 11:00:00 4,0 2,4 - - 0,0
17.12.2017 10:00:00 2,7 1,8 - - 0,0
17.12.2017 09:00:00 2,3 1,7 5,2 9,0 0,0
17.12.2017 08:00:00 2,0 1,4 - - 0,0
17.12.2017 07:00:00 2,1 1,7 - - 0,0
17.12.2017 06:00:00 1,6 1,3 - - 0,0
17.12.2017 05:00:00 1,0 0,7 - - 0,0
17.12.2017 04:00:00 0,1 -0,3 - - 0,0
17.12.2017 03:00:00 0,7 0,4 - - 0,0
17.12.2017 02:00:00 0,1 -0,5 - - 0,0
17.12.2017 01:00:00 0,9 -0,3 - - 0,0
17.12.2017 00:00:00 2,9 1,4 - - -
16.12.2017 23:00:00 3,2 1,7 - - 0,0
16.12.2017 22:00:00 3,9 2,1 - - 0,0
16.12.2017 21:00:00 4,6 2,7 - - 0,0
16.12.2017 20:00:00 3,8 2,6 - - 0,0
16.12.2017 19:00:00 4,0 2,8 - - 0,2
16.12.2017 18:00:00 4,4 3,4 - - 0,0
16.12.2017 17:00:00 5,1 3,1 - - 0,8
16.12.2017 16:00:00 5,2 2,3 - - 0,0
16.12.2017 15:00:00 4,9 2,3 - - 0,0
16.12.2017 14:00:00 5,2 2,4 - - 0,2
16.12.2017 13:00:00 4,7 0,3 - - 0,0
16.12.2017 12:00:00 4,8 -0,9 - - 0,0
16.12.2017 11:00:00 4,2 -1,5 - - 0,0
16.12.2017 10:00:00 2,3 -0,5 - - 0,0
16.12.2017 09:00:00 0,6 -0,8 5,5 9,0 0,0
16.12.2017 08:00:00 0,6 -1,0 - - 0,0
16.12.2017 07:00:00 -0,3 -1,8 - - 0,0
16.12.2017 06:00:00 0,6 -1,2 - - 0,0
16.12.2017 05:00:00 0,8 -1,4 - - 0,0
16.12.2017 04:00:00 0,7 -1,4 - - 0,0
16.12.2017 03:00:00 1,7 -0,6 - - 0,0
16.12.2017 02:00:00 2,7 -0,4 - - 0,0
16.12.2017 01:00:00 3,2 -0,2 - - 0,0
16.12.2017 00:00:00 3,3 0,1 - - 0,0
15.12.2017 23:00:00 3,7 0,5 - - 0,0
15.12.2017 22:00:00 4,5 1,0 - - 0,0
15.12.2017 21:00:00 5,1 1,5 - - 0,0
15.12.2017 20:00:00 5,7 2,1 - - 0,0
15.12.2017 19:00:00 5,9 3,1 - - 0,0
15.12.2017 18:00:00 6,0 2,3 - - 0,0
15.12.2017 17:00:00 6,0 2,0 - - 0,0
15.12.2017 16:00:00 6,1 1,9 - - 0,0
15.12.2017 15:00:00 6,2 1,5 - - 0,0
15.12.2017 14:00:00 5,9 1,3 - - 0,0
15.12.2017 13:00:00 6,0 1,4 - - 0,0
15.12.2017 12:00:00 5,1 1,3 - - 0,0
15.12.2017 11:00:00 4,1 1,3 - - 0,0
15.12.2017 10:00:00 4,0 1,6 - - 0,0
15.12.2017 09:00:00 3,7 1,9 5,7 9,2 0,0
15.12.2017 08:00:00 3,0 1,9 - - 0,6
15.12.2017 07:00:00 3,7 3,0 - - 0,8
15.12.2017 06:00:00 2,4 1,3 - - 0,0
15.12.2017 05:00:00 2,7 1,1 - - 0,0
15.12.2017 04:00:00 2,3 0,7 - - 0,0
15.12.2017 03:00:00 2,0 0,8 - - 0,0
15.12.2017 02:00:00 2,3 1,1 - - 0,0
15.12.2017 01:00:00 2,5 1,3 - - 0,0
15.12.2017 00:00:00 2,7 1,5 - - 0,0
14.12.2017 23:00:00 2,8 1,4 - - 0,0
14.12.2017 22:00:00 2,9 1,3 - - 0,0
14.12.2017 21:00:00 2,5 0,5 - - 0,0
14.12.2017 20:00:00 2,9 0,9 - - 0,0
14.12.2017 19:00:00 3,0 0,9 - - 0,0
14.12.2017 18:00:00 3,5 0,9 - - 0,0
14.12.2017 17:00:00 3,6 0,9 - - 0,0
14.12.2017 16:00:00 4,6 1,1 - - 0,0
14.12.2017 15:00:00 5,4 1,0 - - 0,0
14.12.2017 14:00:00 5,9 1,3 - - 0,0
14.12.2017 13:00:00 6,5 1,6 - - 0,0
14.12.2017 12:00:00 6,4 2,0 - - 0,0
14.12.2017 11:00:00 5,5 1,4 - - 0,0
14.12.2017 10:00:00 4,7 1,3 - - 0,0
14.12.2017 09:00:00 4,1 1,3 6,0 9,4 0,0
14.12.2017 08:00:00 3,8 1,0 - - 0,0
14.12.2017 07:00:00 3,8 0,7 - - 0,0
14.12.2017 06:00:00 4,5 1,2 - - 0,0
14.12.2017 05:00:00 4,6 1,4 - - 0,0
14.12.2017 04:00:00 4,6 1,0 - - 0,0
14.12.2017 03:00:00 4,2 0,6 - - 0,0
14.12.2017 02:00:00 3,7 0,2 - - 0,0
14.12.2017 01:00:00 3,6 0,0 - - 0,0
14.12.2017 00:00:00 4,2 0,4 - - 0,0
13.12.2017 23:00:00 4,4 2,2 - - 0,2
13.12.2017 22:00:00 3,9 2,8 - - 1,2
13.12.2017 21:00:00 4,8 2,3 - - 0,2
13.12.2017 20:00:00 4,8 2,1 - - 0,0
13.12.2017 19:00:00 4,2 1,5 - - 0,0
13.12.2017 18:00:00 4,8 1,6 - - 0,0
13.12.2017 17:00:00 6,3 2,2 - - 0,0
13.12.2017 16:00:00 8,0 5,6 - - 2,6
13.12.2017 15:00:00 9,4 7,0 - - 0,0
13.12.2017 14:00:00 9,1 7,2 - - 0,0
13.12.2017 13:00:00 8,0 6,7 - - 0,8
13.12.2017 12:00:00 7,9 6,3 - - 0,0
13.12.2017 11:00:00 7,4 6,1 - - 0,4
13.12.2017 10:00:00 6,7 5,5 - - 0,2
13.12.2017 09:00:00 6,3 4,9 5,7 9,7 0,0
13.12.2017 08:00:00 5,8 4,4 - - 0,0
13.12.2017 07:00:00 5,6 4,0 - - 0,0
13.12.2017 06:00:00 6,6 5,1 - - 0,0
13.12.2017 05:00:00 8,0 7,0 - - 0,0
13.12.2017 04:00:00 7,9 7,4 - - 0,4
13.12.2017 03:00:00 7,5 6,9 - - 0,6
13.12.2017 02:00:00 7,5 6,9 - - 0,8
13.12.2017 01:00:00 6,9 6,1 - - 0,8
13.12.2017 00:00:00 5,9 5,0 - - 0,4
12.12.2017 23:00:00 5,4 3,9 - - 0,4
12.12.2017 22:00:00 5,4 3,2 - - 0,2
12.12.2017 21:00:00 4,4 1,8 - - 0,0
12.12.2017 20:00:00 4,4 1,5 - - 0,0
12.12.2017 19:00:00 3,4 0,8 - - 0,0
12.12.2017 18:00:00 2,3 0,0 - - 0,0
12.12.2017 17:00:00 2,7 -0,5 - - 0,0
12.12.2017 16:00:00 3,3 0,4 - - 0,0
12.12.2017 15:00:00 3,2 -0,2 - - 0,0
12.12.2017 14:00:00 3,5 -0,1 - - 0,0
12.12.2017 13:00:00 2,8 -0,3 - - 0,0
12.12.2017 12:00:00 2,8 -1,0 - - 0,0
12.12.2017 11:00:00 1,8 -1,5 - - 0,0
12.12.2017 10:00:00 -0,5 -2,0 - - 0,0
12.12.2017 09:00:00 -1,5 -2,8 5,9 9,9 0,0
12.12.2017 08:00:00 -1,8 -3,2 - - 0,0
12.12.2017 07:00:00 -1,9 -3,0 - - 0,0
12.12.2017 06:00:00 -1,7 -3,2 - - 0,0
12.12.2017 05:00:00 -1,5 -3,4 - - 0,0
12.12.2017 04:00:00 -1,3 -3,3 - - 0,0
12.12.2017 03:00:00 -1,1 -3,3 - - 0,0
12.12.2017 02:00:00 -0,3 -2,7 - - 0,0
12.12.2017 01:00:00 0,0 -3,0 - - 0,0
12.12.2017 00:00:00 -0,1 -3,0 - - 0,0
11.12.2017 23:00:00 -0,2 -3,9 - - 0,0

tt = temperature
td = dewpoint
tt -20cm = temperature -20cm
tt -100cm = temperature -100cm
rr = precipitation

Next stations